User: anonymous   Login
Location: Platte
(43.3870°N, 98.8440°W)
Time: 19:31:10
(UTC-05:00)
Language:

Landsat 7 - Orbit

View from above orbital plane
View from above orbital plane
View from above satellite
View from above satellite

Ground track
Ground track

The orbit data is extracted from the following two-line orbital elements,

1 25682U 99020A   17205.27606105 +.00000140 +00000-0 +41126-4 0  9998
2 25682 098.2095 275.9175 0000736 095.4061 264.7208 14.57113703971991
Epoch (UTC): 24 July 2017 06:37:31
Eccentricity: 0.0000736
inclination: 98.2095°
perigee height: 702 km
apogee height: 703 km
right ascension of ascending node: 275.9175°
argument of perigee: 95.4061°
revolutions per day: 14.57113703
mean anomaly at epoch: 264.7208°
orbit number at epoch: 97199

The dashed part of the orbit path shows where the satellite is in the earth's shadow,  

DLR